Regional Weather Roundup
Issued by NWS Little Rock, AR

Home | Current Version | Previous Version | Text Only | Print | Product List | Glossary On
Versions: 1 2 3 4 5 6 7 8 9 10 11 12 13 14 15 16 17 18 19 20 21 22 23 24 25 26 27 28 29 30 31 32 33 34 35 36 37 38 39 40 41 42 43 44 45 46 47 48 49 50
000
ASUS44 KLZK 291305
RWRLZK

WEATHER ROUNDUP FOR ARKANSAS
NATIONAL WEATHER SERVICE LITTLE ROCK AR
800 AM CDT SUN MAR 29 2015

NOTE: "FAIR" INDICATES FEW OR NO CLOUDS BELOW 12,000 FEET WITH NO
SIGNIFICANT WEATHER AND/OR OBSTRUCTIONS TO VISIBILITY.

ARZ001-003-010-029-291400-
NORTHWEST ARKANSAS

CITY           SKY/WX    TMP DP  RH WIND       PRES   REMARKS
FAYETTEVILLE   CLEAR     45  36  70 S12       30.03S
FORT SMITH     CLEAR     39  33  79 E13       30.11S
HARRISON       SUNNY     40  29  64 SE22G30   30.07S
BENTONVILLE    CLEAR     43  32  65 S14       30.01F
ROGERS         CLEAR     44  33  65 SE17      30.01F
SILOAM SPGS    CLEAR     45  30  57 SE9       30.02F
HIGHFILL       CLEAR     45  35  68 S14       30.00F
SPRINGDALE     CLEAR     43  34  70 SE17      30.05S
$$

ARZ004-005-016-291400-
NORTH CENTRAL ARKANSAS

CITY           SKY/WX    TMP DP  RH WIND       PRES   REMARKS
BATESVILLE     SUNNY     36  28  75 SE7       30.21S
FLIPPIN        SUNNY     34  27  75 E5        30.14F WCI  30
MTN HOME       SUNNY     34  27  75 SE8       30.14S WCI  27
$$

ARZ040-041-291400-
WEST CENTRAL ARKANSAS

CITY           SKY/WX    TMP DP  RH WIND       PRES   REMARKS
MENA           CLEAR     39  36  87 CALM      30.14R
MOUNT IDA      FAIR      41  32  70 VRB3      30.13S
$$

ARZ009-017-025-026-028-291400-
NORTHEAST ARKANSAS

CITY           SKY/WX    TMP DP  RH WIND       PRES   REMARKS
CORNING          N/A     36  32  87 SE5       30.24F
JONESBORO      SUNNY     35  31  85 E3        30.24S
NEWPORT        SUNNY     38  32  79 SE8       30.24S
BLYTHEVILLE    SUNNY     40  29  64 SE9       30.27S
$$

ARZ022-023-033-042-044-291400-
CENTRAL ARKANSAS

CITY           SKY/WX    TMP DP  RH WIND       PRES   REMARKS
LITTLE ROCK    CLOUDY    43  33  68 SE7       30.20R
N LITTLE ROCK    N/A     40  35  83 SE8       30.20R
JACKSONVILLE   CLOUDY    38  34  85 NE3       30.19S
SEARCY         PTSUNNY   37  35  92 CALM      30.23S
HOT SPRINGS    SUNNY     41  33  73 E10       30.18S
RUSSELLVILLE   SUNNY     38  33  82 E3        30.18S
CLINTON        PTSUNNY   32  32 100 CALM      30.22S FOG
$$

ARZ036-291400-
EAST ARKANSAS

CITY           SKY/WX    TMP DP  RH WIND       PRES   REMARKS
WEST MEMPHIS   MOSUNNY   39  29  67 SE14      30.24F
$$

ARZ050-053-066-070-073-291400-
SOUTHWEST ARKANSAS

CITY           SKY/WX    TMP DP  RH WIND       PRES   REMARKS
ARKADELPHIA    PTSUNNY   40  36  86 NE5       30.19F
CAMDEN         CLOUDY    41  36  81 CALM      30.19S
TEXARKANA      SUNNY     41  36  82 E3        30.15R
EL DORADO      CLOUDY    46  37  71 SE7       30.18S
DE QUEEN       CLEAR     41  34  76 E8        30.14R
$$

ARZ056-057-069-291400-
SOUTHEAST ARKANSAS

CITY           SKY/WX    TMP DP  RH WIND       PRES   REMARKS
PINE BLUFF     PTSUNNY   42  36  79 SE9       30.21R
STUTTGART      CLOUDY    43  34  70 SE10      30.21S
MONTICELLO     CLOUDY    46  35  65 SE8       30.21R

$$




USA.gov is the U.S. government's official web portal to all federal, state and local government web resources and services.